DW9332 Weather Reports


time (UTC)temp
C
wind
direction
speed
KPH
gust
KPH
rain 1hr
cm
rain 24hr
cm
rain mn
cm
humidity
%
barometer
mb
20260506161511 16 183 9.7 24.1 0.00 0.00 0.00 82 1009.6
20260506160010 16 188 6.4 27.4 0.00 0.00 0.00 81 1009.8
20260506154509 16 216 8.0 22.5 0.00 0.00 0.00 81 1009.9
20260506153009 16 230 12.9 30.6 0.00 0.00 0.00 81 1010.1
20260506151508 16 130 6.4 29.0 0.00 0.00 0.00 82 1010.1
20260506150013 16 232 8.0 27.4 0.00 0.00 0.00 82 1009.8
20260506144506 16 198 9.7 30.6 0.00 0.00 0.00 81 1009.8
20260506143005 17 175 9.7 25.7 0.00 0.00 0.00 80 1009.9
20260506141505 17 168 14.5 30.6 0.00 0.00 0.00 80 1010.1
20260506140010 16 202 11.3 25.7 0.00 0.00 0.00 82 1010.2
20260506134502 16 194 8.0 29.0 0.00 0.00 0.00 82 1010.3
20260506133000 16 209 12.9 30.6 0.00 0.00 0.00 83 1010.2
20260506131559 16 154 9.7 32.2 0.00 0.00 0.00 83 1010.1
20260506130121 16 141 9.7 29.0 0.00 0.00 0.00 83 1010.0
20260506124559 16 242 8.0 27.4 0.00 0.00 0.00 82 1010.1
20260506123055 16 215 6.4 22.5 0.00 0.00 0.00 82 1010.3
20260506121554 16 130 6.4 27.4 0.00 0.00 0.00 83 1010.6
20260506120051 16 191 6.4 25.7 0.00 0.00 0.00 84 1010.5
20260506114550 16 147 8.0 20.9 0.00 0.00 0.00 85 1010.3
20260506113046 15 211 9.7 27.4 0.00 0.00 0.00 86 1010.3
20260506111544 15 182 6.4 24.1 0.00 0.00 0.00 88 1010.6
20260506110044 14 201 8.0 20.9 0.00 0.00 0.00 88 1010.5
20260506104605 14 151 9.7 24.1 0.00 0.00 0.00 89 1010.4
20260506103041 14 192 6.4 20.9 0.00 0.00 0.00 89 1010.3
20260506101536 14 200 6.4 22.5 0.00 0.00 0.00 89 1010.3
20260506100041 14 188 8.0 29.0 0.00 0.00 0.00 89 1010.4
20260506094534 14 189 4.8 17.7 0.00 0.00 0.00 89 1010.3
20260506093029 14 190 9.7 25.7 0.00 0.00 0.00 89 1010.2
20260506091529 14 181 11.3 27.4 0.00 0.00 0.00 89 1010.3
20260506090030 14 165 6.4 17.7 0.00 0.00 0.00 88 1010.4
20260506084525 14 165 9.7 20.9 0.00 0.00 0.00 88 1010.6
20260506083035 14 155 9.7 20.9 0.00 0.00 0.00 87 1010.7
20260506081520 14 127 4.8 16.1 0.00 0.00 0.00 87 1010.8
20260506073015 14 154 8.0 24.1 0.00 0.00 0.00 86 1010.9
20260506071520 14 181 8.0 29.0 0.00 0.00 0.00 85 1010.9
20260506061515 15 191 11.3 25.7 0.00 0.00 0.00 84 1010.8
20260506044512 16 206 9.7 40.2 0.00 0.00 0.00 80 1011.1
20260506043016 16 242 6.4 30.6 0.00 0.00 0.00 79 1011.2
20260506041512 16 159 11.3 35.4 0.00 0.00 0.00 78 1011.1
20260506040016 16 226 8.0 37.0 0.00 0.00 0.00 78 1011.1
20260506034512 16 173 9.7 25.7 0.00 0.00 0.00 77 1011.0
20260506033013 16 259 11.3 41.8 0.00 0.00 0.00 77 1011.0
20260506031511 17 135 9.7 30.6 0.00 0.00 0.00 77 1010.9
20260506030010 17 160 11.3 27.4 0.00 0.00 0.00 76 1011.2
20260506024523 17 201 16.1 38.6 0.00 0.00 0.00 76 1011.0
20260506023009 17 247 9.7 25.7 0.00 0.00 0.00 76 1011.1
20260506021514 17 220 11.3 35.4 0.00 0.00 0.00 74 1011.2
20260506020010 17 192 12.9 33.8 0.00 0.00 0.00 72 1011.2
20260506014520 18 183 16.1 37.0 0.00 0.00 0.00 69 1010.9
20260506013009 18 266 8.0 45.1 0.00 0.00 0.00 68 1010.7
20260506011519 18 155 11.3 41.8 0.00 0.00 0.00 68 1010.7
20260506010012 18 207 9.7 32.2 0.00 0.00 0.00 68 1010.3
20260506004508 18 183 9.7 35.4 0.00 0.00 0.00 68 1010.1
20260506003007 18 197 8.0 38.6 0.00 0.00 0.00 68 1010.1
20260506001510 17 209 9.7 38.6 0.00 0.00 0.00 69 1010.0
20260506000007 18 240 9.7 35.4 0.00 0.00 0.00 69 1009.8
20260505234512 18 188 8.0 38.6 0.00 0.00 0.00 68 1009.6
20260505233007 18 198 12.9 38.6 0.00 0.00 0.00 66 1009.4
20260505231507 18 189 14.5 37.0 0.00 0.00 0.00 65 1009.1
20260505230007 18 187 9.7 40.2 0.00 0.00 0.00 65 1008.9
20260505224506 18 189 9.7 29.0 0.00 0.00 0.00 65 1009.1
20260505223007 19 182 11.3 48.3 0.00 0.00 0.00 64 1009.0
20260505221506 20 255 6.4 33.8 0.00 0.00 0.00 64 1008.8
20260505220005 20 151 11.3 33.8 0.00 0.00 0.00 63 1008.7
20260505214505 20 194 12.9 43.5 0.00 0.00 0.00 62 1008.7
20260505213006 20 171 11.3 27.4 0.00 0.00 0.00 62 1008.6
20260505211513 20 206 9.7 40.2 0.00 0.00 0.00 62 1008.6
20260505210006 20 195 11.3 32.2 0.00 0.00 0.00 63 1008.4
20260505204503 20 202 12.9 33.8 0.00 0.00 0.00 62 1008.4
20260505203002 20 200 9.7 20.9 0.00 0.00 0.00 63 1008.5
20260505201502 21 182 6.4 20.9 0.00 0.00 0.00 62 1008.6
20260505200002 21 184 11.3 30.6 0.00 0.00 0.00 61 1008.7
20260505194559 21 178 8.0 33.8 0.00 0.00 0.00 62 1008.9
20260505193057 22 153 4.8 17.7 0.00 0.00 0.00 62 1009.0
20260505191557 21 177 11.3 27.4 0.00 0.00 0.00 63 1009.3
20260505190054 22 182 6.4 27.4 0.00 0.00 0.00 63 1009.6
20260505184553 21 181 8.0 30.6 0.00 0.00 0.00 63 1009.7
20260505183052 22 153 6.4 16.1 0.00 0.00 0.00 60 1009.7
20260505181551 21 195 9.7 25.7 0.00 0.00 0.00 64 1009.9
20260505180056 21 171 6.4 22.5 0.00 0.00 0.00 62 1010.1
20260505174550 21 181 9.7 22.5 0.00 0.00 0.00 64 1010.1
20260505173049 21 150 12.9 24.1 0.00 0.00 0.00 64 1010.1
20260505171547 22 196 6.4 17.7 0.00 0.00 0.00 62 1010.3
20260505170047 21 225 8.0 19.3 0.00 0.00 0.00 63 1010.2
20260505164545 21 195 8.0 24.1 0.00 0.00 0.00 62 1010.4
20260505163043 22 169 6.4 20.9 0.00 0.00 0.00 62 1010.5